Voltar ao catálogo

STARLINK-35965

AtivoComunicaçõesVLEO
NORAD 66631·PAYLOAD·🇺🇸 United States

Lançado Nov 23, 2025 de Vandenberg Space Force Base

Loading…

Próximas Passagens (próximas 24 horas)

TLE

AtualizadoSource: CelesTrak SupGP

Época: Sep 15, 2026, 03:30 UTC

1 66631C 25271Q   26258.14631944  .00058869  00000+0  17391-2 0  2580
2 66631  53.1592 334.7761 0001119  93.3836 348.3727 15.34364530    13

Acompanhe STARLINK-35965 em tempo real com AllMySat

Download on the App Store